Flag for Germany Weather past 2 weeks in Kleve, North Rhine-Westphalia, Germany

Now
64 °F

Passing clouds.


Feels Like: 64 °F
Forecast: 58 / 75 °F
Wind: 5 mph from Southwest

Location: Niederrhein

Current Time: Jul 6, 2015 at 1:39:32 AM

Latest Report: Jul 6, 2015 at 12:20 AM


Visibility: N/A

Pressure: 30.07 "Hg

Humidity: 78%

Dew point: 57 °F

Location of KleveLocation

Historic Weather in Kleve — Graph

°F

Kleve temperature yesterday

Maximum temperature yesterday: 86 °F (at 2:20 PM)
Minimum temperature yesterday: 64 °F (at 6:20 AM)
Average temperature yesterday: 72 °F

Past Weeks' High & Low Weather Summary

 TemperatureHumidityPressure
High100 °F (Jul 2, 3:50 PM)100% (Jun 21, 1:50 PM)30.27 "Hg (Jun 21, 1:50 PM)
Low50 °F (Jun 22, 10:50 PM)24% (Jul 1, 3:20 PM)29.68 "Hg (Jun 22, 7:50 PM)
Average71 °F63%30.06 "Hg
* Reported Jun 21 12:20 AM — Jul 6 12:20 AM, Kleve, Weather by CustomWeather, © 2015

Note: Actual official high and low records may vary slightly from our data, if they occured in-between our weather recording intervals... More about our weather records

Advertising

Kleve weather history for previous 24 hours

 ConditionsComfort  
Time TempWeatherWind HumidityBarometerVisibility
12:20 AM
Mon, Jul 6
64 °FPassing clouds.5 mph78%30.07 "HgN/A
11:50 PM
Sun, Jul 5
64 °FSunny.6 mph78%30.07 "Hg10 mi
11:20 PM64 °FSunny.7 mph78%30.07 "Hg10 mi
10:50 PM66 °FSunny.7 mph73%30.04 "Hg10 mi
10:20 PM66 °FSunny.2 mph83%30.04 "Hg10 mi
9:50 PM64 °FSunny.3 mph88%30.01 "Hg10 mi
9:20 PM66 °FSunny.6 mph78%30.01 "Hg10 mi
8:50 PM68 °FSunny.3 mph73%30.01 "Hg10 mi
8:20 PM68 °FPassing clouds.7 mph73%30.01 "HgN/A
7:50 PM70 °FPassing clouds.7 mph69%29.98 "HgN/A
7:20 PM68 °FSunny.2 mph78%29.98 "Hg10 mi
6:50 PM68 °FSunny.2 mph78%29.98 "Hg10 mi
6:20 PM70 °FThundershowers. Scattered clouds.12 mph60%30.01 "HgN/A
5:50 PM72 °FPassing clouds.18 mph57%29.95 "HgN/A
5:20 PM72 °FPassing clouds.17 mph57%29.98 "HgN/A
4:50 PM75 °FScattered showers. Scattered clouds.26 mph57%29.95 "Hg6 mi
4:20 PM84 °FPassing clouds.13 mph58%29.92 "HgN/A
3:50 PM86 °FPassing clouds.8 mph55%29.92 "HgN/A
3:20 PM86 °FPassing clouds.7 mph55%29.92 "HgN/A
2:50 PM84 °FPassing clouds.10 mph55%29.92 "HgN/A
2:20 PM86 °FPassing clouds.6 mph55%29.92 "HgN/A
1:50 PM84 °FPassing clouds.7 mph58%29.95 "HgN/A
1:20 PM82 °FPassing clouds.9 mph58%29.95 "HgN/A
12:50 PM81 °FPassing clouds.6 mph62%29.98 "HgN/A
12:20 PM81 °FPassing clouds.6 mph62%29.98 "HgN/A
11:50 AM77 °FPassing clouds.5 mph65%30.01 "HgN/A
11:20 AM77 °FPassing clouds.6 mph65%30.01 "HgN/A
10:50 AM75 °FSunny.3 mph65%30.01 "Hg10 mi
10:20 AM75 °FSunny.3 mph65%30.04 "Hg10 mi
9:50 AM73 °FPassing clouds.7 mph69%30.04 "HgN/A
9:20 AM72 °FSunny.1 mph73%30.07 "Hg10 mi
8:50 AM70 °FSunny.No wind73%30.07 "Hg10 mi
8:20 AM68 °FSunny.1 mph78%30.07 "Hg10 mi
7:50 AM66 °FSunny.3 mph83%30.07 "Hg10 mi
7:20 AM64 °FClear.No wind83%30.07 "Hg10 mi
6:50 AM64 °FSprinkles. Passing clouds.2 mph88%30.07 "HgN/A
6:20 AM64 °FSprinkles. Passing clouds.3 mph83%30.09 "HgN/A
5:50 AM66 °FClear.3 mph73%30.09 "Hg10 mi
5:20 AM66 °FClear.No wind73%30.09 "Hg10 mi
4:50 AM66 °FClear.3 mph73%30.12 "Hg10 mi
Weather by CustomWeather, © 2015

See weather overviewHow to use our weather pages